Weather in Chupino

Russia / Sverdlovsk Oblast     57°00′25″N   63°22′53″E
temp.,
°C
wind,
m/s
gust,
m/s
humid.,
%
clouds,
%
prec.,
mm/h
press.,
hPa
HPBL,
m
26 july, mon
mon2623:00+11nw376436 0.0 1016137
02:00+13nw2758100 0.0 1017281
05:00+9wnw28755 0.0 1018166
08:00+14nw47565 0.0 1018541
11:00+18wnw5639100 0.0 10172437
14:00+19nw3636100 0.0 10162658
17:00+17wnw364685 0.0 10161478
20:00+15w265779 0.0 1015153
27 july, tue
tue2723:00+12wsw386477 0.0 1015158
02:00+12w396711 0.0 1014263
05:00+9wsw27905 0.0 1014138
08:00+14wsw3967100 0.0 1012370
11:00+21w6843100 0.0 10102395
14:00+13w3995100 1.4 1011534
17:00+17wnw37785 2.1 10091017
20:00+15w2787100 0.7 1009187
28 july, wed
wed2823:00+11nw3109215 0.7 1009214
02:00+11nw398029 0.0 1009254
05:00+6wnw39905 0.0 1010193
08:00+12wnw486452 0.0 1009670
11:00+16wnw5846100 0.0 10081970
14:00+14w366548 0.6 1008918
17:00+15nw586038 1.4 10091633
20:00+13nnw265743 0.0 1010352
29 july, thu
thu2923:00+10wsw1165100 0.0 101112
02:00+7w2677100 0.0 1011126
05:00+6wsw2581100 0.0 1011114
08:00+8wsw2485100 0.3 1010176
11:00+11ssw357463 0.6 1010489
14:00+16wsw356775 0.1 1009989
17:00+19wnw365527 0.3 10081390
20:00+16wnw1175100 0.3 100718
30 july, fri
fri3023:00+13s4897100 2.3 1007205
02:00+12sw31097100 0.1 1006244
05:00+12wsw399799 0.2 1005230
08:00+15w259085 0.0 1006271
11:00+21wsw3562100 0.0 1006910
14:00+22sw4570100 1.0 10051157
17:00+23sw356584 1.8 10051019
20:00+19ssw2685100 0.4 1005145